Weather History for KYIP - December, 2001

Change the Weather History Date:

Monday, December 31, 2001

  Actual Average Record
Temperature  
Mean Temperature 20 °F -  
Max Temperature 23 °F 32 °F 57 °F (2004)
Min Temperature 18 °F 20 °F -3 °F (1976)
Degree Days  
Heating Degree Days 44    
Moisture  
Dew Point 14 °F    
Average Humidity 78    
Maximum Humidity 85    
Minimum Humidity 68    
Precipitation  
Precipitation 0.00 in - - ()
Sea Level Pressure  
Sea Level Pressure 30.16 in    
Wind  
Wind Speed 13 mph (WSW)    
Max Wind Speed 17 mph    
Max Gust Speed -    
Visibility 9 miles    
Events Snow    
Averages and records for this station are not official NWS values.
T = Trace of Precipitation, MM = Missing Value Source: NWS Daily Summary

Daily Weather History Graph

Daily Weather History Graph

Search for Another Location

Airport or City:

Trip Planner

Search our weather history database for the weather conditions in past years. The results will help you decide how hot, cold, wet, or windy it might be!

Date:

Astronomy

Dec. 31, 2001 Rise Set
Actual Time 8:02 AM EST 5:11 PM EST
Civil Twilight 7:31 AM EST 5:43 PM EST
Nautical Twilight 6:55 AM EST 6:18 PM EST
Astronomical Twilight 6:21 AM EST 6:52 PM EST
Moon 6:38 PM EST (12/31) 9:16 AM EST (12/31)
Length of Visible Light 10h 12m
Length of Day
9h 08m
Full, 98% of the Moon is Illuminated
Dec 31
Full
Jan 5
Last Quarter
Jan 13
New
Jan 21
First Quarter
Jan 28
Full

Hourly Weather History & Observations

Time (EST) Temp. Windchill Dew Point Humidity Pressure Visibility Wind Dir Wind Speed Gust Speed Precip Events Conditions
12:53 AM 18.0 °F 4.2 °F 12.9 °F 81% 30.13 in 10.0 mi SW 13.8 mph - 0.00 in   Overcast
1:53 AM 18.0 °F 4.2 °F 12.9 °F 81% 30.14 in 9.0 mi SW 13.8 mph - 0.00 in Snow Light Snow
2:53 AM 18.0 °F 5.4 °F 14.0 °F 84% 30.16 in 9.0 mi SW 11.5 mph - 0.00 in Snow Light Snow
3:53 AM 18.0 °F 4.8 °F 14.0 °F 84% 30.16 in 9.0 mi SW 12.7 mph - 0.00 in Snow Light Snow
4:53 AM 19.0 °F 5.6 °F 15.1 °F 85% 30.15 in 8.0 mi WSW 13.8 mph - 0.00 in Snow Light Snow
5:53 AM 19.0 °F 6.8 °F 15.1 °F 85% 30.14 in 9.0 mi SW 11.5 mph - 0.00 in Snow Light Snow
6:53 AM 19.0 °F 5.6 °F 15.1 °F 85% 30.15 in 9.0 mi SW 13.8 mph - 0.00 in Snow Light Snow
7:53 AM 19.0 °F 6.8 °F 15.1 °F 85% 30.16 in 9.0 mi SW 11.5 mph - 0.00 in Snow Light Snow
8:53 AM 19.0 °F 6.8 °F 14.0 °F 81% 30.19 in 9.0 mi SW 11.5 mph - 0.00 in Snow Light Snow
9:53 AM 19.9 °F 6.7 °F 15.1 °F 81% 30.20 in 9.0 mi SW 13.8 mph - 0.00 in Snow Light Snow
10:53 AM 21.0 °F 9.9 °F 15.1 °F 78% 30.19 in 9.0 mi WSW 10.4 mph - 0.00 in   Overcast
11:53 AM 21.9 °F 7.8 °F 15.1 °F 75% 30.17 in 9.0 mi West 17.3 mph - 0.00 in Snow Light Snow
12:00 PM 21.2 °F 7.8 °F 15.8 °F 80% 30.06 in 9.0 mi West 15.0 mph - 0.00 in Snow Light Snow
12:10 PM 23.0 °F 10.6 °F 15.8 °F 74% 30.06 in 9.0 mi West 13.8 mph - 0.00 in Snow Light Snow
12:53 PM 21.9 °F 9.8 °F 15.1 °F 75% 30.16 in 9.0 mi WSW 12.7 mph - 0.00 in Snow Light Snow
1:53 PM 23.0 °F 10.6 °F 14.0 °F 68% 30.15 in 9.0 mi WSW 13.8 mph - 0.00 in Snow Light Snow
2:36 PM 23.0 °F 10.1 °F 14.0 °F 68% 30.04 in 9.0 mi West 15.0 mph - 0.00 in Snow Light Snow
2:53 PM 21.9 °F 8.7 °F 12.9 °F 68% 30.15 in 9.0 mi WSW 15.0 mph - 0.00 in Snow Light Snow
3:53 PM 21.9 °F 7.8 °F 14.0 °F 72% 30.16 in 9.0 mi West 17.3 mph - 0.00 in Snow Light Snow
4:53 PM 21.0 °F 9.3 °F 12.9 °F 71% 30.17 in 9.0 mi WSW 11.5 mph - 0.00 in Snow Light Snow
5:53 PM 19.9 °F 7.9 °F 12.9 °F 74% 30.19 in 9.0 mi SW 11.5 mph - 0.00 in Snow Light Snow
6:53 PM 19.9 °F 8.6 °F 12.9 °F 74% 30.20 in 9.0 mi SW 10.4 mph - 0.00 in Snow Light Snow
7:53 PM 19.9 °F 8.6 °F 12.9 °F 74% 30.21 in 9.0 mi SW 10.4 mph - 0.00 in Snow Light Snow
8:53 PM 19.9 °F 7.9 °F 14.0 °F 78% 30.21 in 9.0 mi WSW 11.5 mph - 0.00 in Snow Light Snow
9:53 PM 19.0 °F 7.5 °F 14.0 °F 81% 30.21 in 9.0 mi SW 10.4 mph - 0.00 in Snow Light Snow
10:53 PM 19.0 °F 8.2 °F 14.0 °F 81% 30.22 in 9.0 mi SW 9.2 mph - 0.00 in Snow Light Snow
11:53 PM 19.0 °F 8.2 °F 14.0 °F 81% 30.22 in 9.0 mi West 9.2 mph - 0.00 in Snow Light Snow